[[{"header":{"parameterUnit":"m.s-1","parameterCategory":1,"la1":30.2991,"la2":30.254,"lo1":-89.0895,"lo2":-89.0444,"dy":0.0017,"dx":0.0017,"nx":28,"ny":28,"refTime":"2025-01-24T03:00:00:Z","depth":0,"parameterNumber":2,"parameterNumberName":"U-component_of_WINDS"},"data":[0,0,0,0,0,0,0,0,0,0,0,0,0,0,0,0,0,0,0,0,0,0,0,0,0,0,0,0,0,0,0,0,0,0,0,0,0,0,0,0,0,0,0,0,0,0,0,0,0,0,0,0,0,0,0,0,0,0,-2.9304,-2.9303,0,-2.9275,-2.9275,-2.9274,-2.9143,-2.914,-2.9137,-2.9134,-2.9111,-2.9113,-2.9115,0,0,0,0,0,0,0,0,0,0,0,0,0,-2.9251,-2.9252,-2.9304,-2.9303,-2.9303,-2.9275,-2.9275,-2.9274,-2.9143,-2.914,-2.9136,-2.9132,-2.911,-2.9113,-2.9115,0,0,0,0,0,0,0,0,0,0,0,0,0,-2.9253,-2.9253,-2.9304,-2.9234,-2.9227,-2.9275,-2.9275,-2.9274,-2.9144,-2.9139,-2.9135,-2.913,-2.9109,-2.9112,-2.9116,-2.923,0,0,-2.9126,-2.9128,0,0,0,0,0,0,0,0,-2.9253,-2.9255,-2.9245,-2.9239,-2.9232,-2.9207,-2.9247,-2.926,-2.9145,-2.9176,-2.9134,-2.9128,-2.9147,-2.9147,-2.9152,-2.9229,-2.9228,-2.9127,-2.9129,-2.913,-2.9131,0,0,0,0,0,0,0,-2.9253,-2.9256,-2.9292,-2.9245,-2.9237,-2.9206,-2.9201,-2.9249,-2.9188,-2.9173,-2.9163,-2.9161,-2.9143,-2.9149,-2.9151,-2.9228,-2.9126,-2.9129,-2.9132,-2.9133,-2.94,-2.9405,0,0,0,0,0,0,-2.9262,-2.9257,-2.9293,-2.9292,-2.9231,-2.9211,-2.9206,-2.922,-2.9187,-2.9178,-2.9165,-2.9155,-2.9146,-2.9147,-2.9149,-2.9283,-2.913,-2.9133,-2.9135,-2.9395,-2.9401,-2.9406,0,0,0,0,0,0,-2.9262,-2.9267,-2.9294,-2.9271,-2.9273,-2.9217,-2.9234,-2.9222,-2.9228,-2.9181,-2.9171,-2.9183,-2.9142,-2.9145,-2.9211,-2.928,-2.9135,-2.9138,-2.9389,-2.9397,-2.9404,-2.955,0,0,0,0,0,0,-2.9261,-2.9267,-2.9309,-2.9273,-2.9274,-2.9355,-2.9238,-2.9225,-2.9234,-2.922,-2.9195,-2.9186,-2.9139,-2.9207,-2.9215,-2.9282,-2.9141,-2.9383,-2.9392,-2.9401,-2.9539,-2.9562,-2.9581,0,0,0,0,0,-2.9259,-2.9352,-2.9311,-2.9317,-2.9325,-2.9359,-2.936,-2.9301,-2.924,-2.9282,-2.9252,-2.9187,-2.9271,-2.9215,-2.9222,-2.9292,-2.9378,-2.939,-2.9401,-2.9529,-2.9557,-2.9581,0,0,0,0,0,0,-2.9398,-2.9346,-2.93,-2.9384,-2.9377,-2.9337,-2.9388,-2.9332,-2.9344,-2.9332,-2.926,-2.9256,-2.9334,-2.9319,-2.9257,-2.9402,-2.9314,-2.9327,-2.9409,-2.9435,-2.9456,-2.9458,-2.9143,0,0,0,0,0,-2.9438,-2.9469,-2.9422,-2.9501,-2.9499,-2.9445,-2.9458,-2.9413,-2.9404,-2.9401,-2.9376,-2.9371,-2.9396,-2.9415,-2.9435,-2.9536,-2.953,-2.9588,-2.9609,-2.9627,-2.964,-2.9694,-2.972,-2.9444,-2.9444,-2.9443,0,0,-2.9522,-2.9497,-2.9521,-2.9528,-2.9517,-2.9553,-2.9443,-2.9485,-2.9512,-2.9408,-2.9469,-2.9451,-2.9441,-2.9526,-2.9562,-2.9516,-2.9715,-2.9641,-2.9656,-2.9659,-2.9709,-2.9735,-2.9758,-2.9451,-2.945,-2.9449,0,0,-2.9693,-2.9676,-2.974,-2.9732,-2.9717,-2.968,-2.9696,-2.9665,-2.9648,-2.9708,-2.9631,-2.9663,-2.9707,-2.9704,-2.9708,-2.988,-2.9821,-2.9889,-3.0,-3.0054,-3.0076,-3.0095,-3.0158,-3.0182,-2.9902,-2.9902,-2.9902,0,-2.98,-2.9848,-2.9781,-2.9828,-2.9835,-2.974,-2.9807,-2.9802,-2.9796,-2.9803,-2.9752,-2.9807,-2.9793,-2.9877,-2.9919,-2.9925,-2.9943,-2.9892,-3.0078,-3.0096,-3.0113,-3.0173,-3.0196,-2.991,-2.9909,-2.9909,-2.9908,0,-2.9981,-3.0016,-3.007,-3.0065,-3.0077,-3.0133,-3.0077,-3.0098,-3.0053,-3.0023,-3.0087,-3.0067,-3.0083,-3.01,-3.0056,-3.0179,-3.0151,-3.009,-2.9999,-3.0149,-3.0204,-3.0226,-2.9922,-2.9919,-2.9917,-2.9915,0,0,-3.0239,-3.0196,-3.0217,-3.0214,-3.0191,-3.0218,-3.0271,-3.0285,-3.0305,-3.0304,-3.0349,-3.039,-3.0333,-3.0338,-3.0294,-3.0341,-3.0481,-3.0274,-3.0273,-3.0315,-3.0617,-3.0665,-3.0692,-3.0442,-3.0446,-3.0449,-3.0619,0,-3.0404,-3.049,-3.0432,-3.0529,-3.0562,-3.0474,-3.0521,-3.0514,-3.0487,-3.0513,-3.0484,-3.0515,-3.0437,-3.044,-3.0483,-3.0455,-3.0541,-3.0442,-3.0486,-3.0488,-3.0492,-3.072,-3.077,-3.0931,-3.064,-3.0643,-3.0646,0,-3.0607,-3.0614,-3.0714,-3.0685,-3.0697,-3.074,-3.0749,-3.0774,-3.0765,-3.0742,-3.0749,-3.0693,-3.0746,-3.0656,-3.073,-3.0664,-3.0679,-3.0668,-3.0673,-3.0676,-3.0577,-3.0732,-3.0981,-3.1006,-3.0679,-3.0676,-3.0674,0,-3.0788,-3.0822,-3.0886,-3.0886,-3.0854,-3.0887,-3.0876,-3.0861,-3.0874,-3.0883,-3.0891,-3.0906,-3.0916,-3.093,-3.0881,-3.082,-3.0963,-3.0868,-3.0948,-3.095,-3.0983,-3.0982,-3.1241,-3.0991,-3.099,-3.099,-3.0989,0,-3.0978,-3.1044,-3.0967,-3.1007,-3.1079,-3.1012,-3.1086,-3.1065,-3.1054,-3.109,-3.1015,-3.1052,-3.0984,-3.1014,-3.0977,-3.1045,-3.105,-3.1035,-3.1025,-3.1043,-3.1045,-3.1052,-3.1041,-3.0996,-3.0995,-3.0993,-3.0992,0,-3.1192,-3.1143,-3.1208,-3.1173,-3.1165,-3.122,-3.119,-3.1227,-3.1196,-3.1243,-3.1251,-3.1202,-3.1235,-3.1187,-3.1214,-3.1189,-3.1284,-3.1255,-3.1287,-3.1279,-3.1362,-3.1356,-3.1636,-3.167,-3.1397,-3.14,-3.1402,0,-3.1318,-3.1366,-3.1335,-3.1353,-3.1346,-3.1376,-3.1388,-3.1326,-3.1342,-3.1336,-3.1375,-3.14,-3.1417,-3.1473,-3.1442,-3.1464,-3.1436,-3.1533,-3.1439,-3.1457,-3.144,-3.1439,-3.1445,-3.1553,-3.1556,-3.1559,-3.1561,0,-3.1547,-3.1521,-3.154,-3.1552,-3.1569,-3.1575,-3.1577,-3.1597,-3.1531,-3.1554,-3.1585,-3.1598,-3.1625,-3.1653,-3.1666,-3.1657,-3.16,-3.1591,-3.1611,-3.163,-3.1647,-3.1641,-3.1341,-3.1585,-3.1582,-3.1581,-3.1579,-3.1578,-3.1722,-3.1761,-3.1746,-3.1771,-3.1765,-3.1769,-3.1802,-3.1775,-3.1799,-3.1815,-3.1777,-3.1818,-3.181,-3.1821,-3.1819,-3.1852,-3.181,-3.1838,-3.1846,-3.1854,-3.1868,-3.1641,-3.1854,-3.1853,-3.1852,-3.1852,-3.1851,0,-3.1949,-3.1934,-3.1958,-3.1962,-3.1983,-3.1924,-3.1923,-3.1945,-3.1981,-3.1977,-3.1995,-3.2032,-3.2059,-3.203,-3.2052,-3.2084,-3.2059,-3.2092,-3.209,-3.209,-3.1903,-3.1885,-3.2113,-3.2113,-3.2113,-3.2112,-3.2112,-3.2112,-3.2069,-3.2133,-3.2105,-3.2167,-3.2152,-3.219,-3.2195,-3.2199,-3.2196,-3.224,-3.2261,-3.2241,-3.2228,-3.2249,-3.2271,-3.2262,-3.2275,-3.2319,-3.2301,-3.2128,-3.2102,-3.2078,-3.206,-3.2321,-3.2322,-3.2484,-3.2486,-3.2487]},{"header":{"parameterUnit":"m.s-1","parameterCategory":1,"la1":30.2991,"la2":30.254,"lo1":-89.0895,"lo2":-89.0444,"dy":0.0017,"dx":0.0017,"nx":28,"ny":28,"refTime":"2025-01-24T03:00:00:Z","depth":0,"parameterNumber":3,"parameterNumberName":"V-component_of_WINDS"},"data":[0,0,0,0,0,0,0,0,0,0,0,0,0,0,0,0,0,0,0,0,0,0,0,0,0,0,0,0,0,0,0,0,0,0,0,0,0,0,0,0,0,0,0,0,0,0,0,0,0,0,0,0,0,0,0,0,0,0,0.7201,0.72,0,0.716,0.716,0.716,0.7211,0.7213,0.7214,0.7216,0.7174,0.7171,0.7168,0,0,0,0,0,0,0,0,0,0,0,0,0,0.7321,0.7319,0.7201,0.72,0.72,0.716,0.716,0.7159,0.721,0.7213,0.7215,0.7217,0.7175,0.7171,0.7168,0,0,0,0,0,0,0,0,0,0,0,0,0,0.7274,0.7318,0.7201,0.722,0.7222,0.7161,0.716,0.7159,0.721,0.7213,0.7215,0.7218,0.7176,0.7172,0.7168,0.7085,0,0,0.7154,0.7153,0,0,0,0,0,0,0,0,0.7276,0.7269,0.7218,0.7219,0.722,0.7193,0.7187,0.7134,0.7209,0.7214,0.7216,0.7219,0.7178,0.7174,0.716,0.7083,0.7081,0.7154,0.7151,0.715,0.7148,0,0,0,0,0,0,0,0.728,0.7271,0.7185,0.7217,0.7219,0.7231,0.7227,0.7177,0.7181,0.7214,0.7218,0.7212,0.7179,0.7164,0.7159,0.7081,0.7154,0.715,0.7148,0.7146,0.6934,0.6932,0,0,0,0,0,0,0.7281,0.7274,0.7186,0.7184,0.7256,0.7227,0.7223,0.7199,0.7182,0.7182,0.721,0.7215,0.717,0.7164,0.7158,0.7061,0.715,0.7146,0.7143,0.6937,0.6934,0.6931,0,0,0,0,0,0,0.7283,0.7272,0.7188,0.723,0.722,0.7222,0.7195,0.7197,0.7182,0.7179,0.7179,0.7194,0.7172,0.7164,0.7103,0.706,0.7144,0.714,0.6941,0.6936,0.6932,0.6865,0,0,0,0,0,0,0.7286,0.7273,0.7242,0.7229,0.7217,0.7133,0.7192,0.7194,0.7174,0.718,0.7164,0.7163,0.7174,0.7109,0.7099,0.7056,0.7136,0.6945,0.6939,0.6934,0.6871,0.6858,0.6848,0,0,0,0,0,0.7291,0.7224,0.724,0.7229,0.7178,0.713,0.7124,0.7137,0.7171,0.7139,0.7137,0.7164,0.7066,0.7102,0.7091,0.7046,0.6948,0.6941,0.6934,0.6876,0.6861,0.6848,0,0,0,0,0,0,0.7231,0.7222,0.724,0.7167,0.7149,0.7139,0.71,0.7121,0.7093,0.71,0.7117,0.7113,0.7048,0.7041,0.7081,0.6966,0.7013,0.7003,0.6972,0.6958,0.6947,0.6949,0.7133,0,0,0,0,0,0.721,0.7172,0.7166,0.7102,0.7093,0.7098,0.7077,0.7089,0.7071,0.7064,0.7057,0.7039,0.7004,0.6981,0.6948,0.687,0.6867,0.6834,0.6822,0.6813,0.6804,0.6763,0.6748,0.6908,0.6908,0.6908,0,0,0.7165,0.7155,0.713,0.709,0.7078,0.7038,0.7091,0.7047,0.7017,0.7057,0.6999,0.6994,0.6974,0.6904,0.6873,0.6896,0.676,0.6804,0.6797,0.6793,0.6754,0.6739,0.6726,0.6903,0.6904,0.6905,0,0,0.7063,0.7052,0.6998,0.6984,0.6965,0.6969,0.6956,0.6943,0.6941,0.6883,0.6912,0.6878,0.6817,0.6802,0.6787,0.668,0.6703,0.6669,0.6609,0.6568,0.6555,0.6544,0.6506,0.6492,0.666,0.666,0.666,0,0.7009,0.6951,0.6967,0.6921,0.6903,0.6937,0.6883,0.6869,0.684,0.6826,0.6853,0.6779,0.6768,0.6695,0.6669,0.6655,0.6641,0.6671,0.6556,0.6545,0.6535,0.6499,0.6484,0.6656,0.6657,0.6657,0.6657,0,0.6886,0.6845,0.6804,0.6775,0.6753,0.6702,0.6711,0.6686,0.67,0.6701,0.6642,0.663,0.6597,0.658,0.6593,0.6509,0.6525,0.6553,0.6601,0.6515,0.6482,0.6468,0.665,0.6652,0.6653,0.6654,0,0,0.6745,0.6727,0.6711,0.6699,0.6681,0.6649,0.6601,0.6568,0.6547,0.6526,0.6485,0.6434,0.6461,0.6443,0.6455,0.6419,0.6335,0.6452,0.6452,0.6431,0.6242,0.6221,0.6204,0.6351,0.6349,0.6347,0.6244,0,0.6643,0.6559,0.6573,0.6492,0.6454,0.6487,0.6445,0.6429,0.6429,0.6397,0.6397,0.6361,0.6399,0.6388,0.6354,0.6353,0.6298,0.636,0.6314,0.6312,0.6317,0.6187,0.6164,0.6067,0.6231,0.6229,0.6227,0,0.6512,0.6487,0.6403,0.6391,0.6376,0.6337,0.6309,0.6278,0.6261,0.6264,0.6244,0.6263,0.6214,0.6263,0.6197,0.6239,0.6221,0.6217,0.6214,0.621,0.6264,0.6179,0.6037,0.6022,0.6206,0.6208,0.621,0,0.6418,0.6363,0.6305,0.6294,0.6278,0.6251,0.6243,0.6229,0.6209,0.6184,0.6171,0.6141,0.6124,0.61,0.611,0.6144,0.6042,0.6091,0.6042,0.6042,0.6019,0.602,0.5871,0.6007,0.6007,0.6008,0.6008,0,0.6303,0.625,0.6263,0.6227,0.6169,0.6185,0.6127,0.6123,0.611,0.6075,0.6101,0.6067,0.6083,0.6049,0.6057,0.6001,0.5993,0.5994,0.5996,0.5991,0.5991,0.5979,0.5986,0.6004,0.6005,0.6005,0.6006,0,0.6187,0.6194,0.6133,0.6124,0.612,0.6078,0.607,0.6037,0.6039,0.5993,0.5984,0.5987,0.595,0.5957,0.5916,0.5921,0.5851,0.5862,0.5856,0.5859,0.581,0.5814,0.5648,0.5627,0.5777,0.5775,0.5774,0,0.6113,0.6073,0.6059,0.6038,0.6028,0.5993,0.5972,0.5987,0.5965,0.5943,0.5912,0.5877,0.585,0.5788,0.5787,0.5756,0.5766,0.571,0.5761,0.5757,0.5765,0.5767,0.5763,0.57,0.5698,0.5696,0.5695,0,0.598,0.5986,0.5956,0.5927,0.5902,0.588,0.586,0.584,0.5854,0.5827,0.579,0.5768,0.5727,0.5692,0.5663,0.5655,0.5677,0.5679,0.5666,0.566,0.5659,0.5659,0.5828,0.5683,0.5684,0.5685,0.5686,0.5686,0.5883,0.585,0.5835,0.5801,0.5787,0.5768,0.5737,0.5736,0.5704,0.5672,0.5682,0.5639,0.5624,0.5587,0.5576,0.5542,0.5563,0.5544,0.554,0.5535,0.5528,0.5665,0.5537,0.5538,0.5538,0.5538,0.5538,0,0.5752,0.5745,0.5713,0.5685,0.5658,0.5682,0.5661,0.5637,0.5599,0.5583,0.5556,0.5512,0.5479,0.5475,0.5443,0.5417,0.5426,0.5408,0.541,0.5408,0.5512,0.5526,0.5401,0.5401,0.5401,0.5401,0.5401,0.5401,0.5681,0.5625,0.5629,0.5567,0.556,0.5518,0.5504,0.5487,0.5474,0.5425,0.5397,0.5395,0.5384,0.5351,0.5321,0.5321,0.5308,0.5286,0.5289,0.5387,0.54,0.5413,0.5427,0.5283,0.5283,0.5188,0.5187,0.5187]}]]